Home   Weather   India   Kundapur   Past weeks
Flag for India

Past Weather in Kundapur, Karnataka, India — Yesterday and Last 2 Weeks

Currently: 75 °F. Clear. (Weather station: Mangalore / Bajpe, India). See more current weather

Past Weather in Kundapur — Graph

°F

Kundapur Temperature Yesterday

Maximum temperature yesterday: 90 °F (at 1:00 pm)
Minimum temperature yesterday: 75 °F (at 6:30 am)
Average temperature yesterday: 81 °F

High & Low Weather Summary for the Past Weeks

 TemperatureHumidityPressure
High95 °F (Feb 2, 2:00 pm)94% (Jan 27, 7:30 am)29.95 "Hg (Jan 27, 7:30 am)
Low72 °F (Jan 27, 7:30 am)19% (Jan 28, 2:30 pm)29.71 "Hg (Jan 29, 3:00 pm)
Average81 °F66%29.83 "Hg
* Reported Jan 24 2:30 am — Feb 8 2:30 am, Kundapur. Weather by CustomWeather, © 2023

Note: Actual official high and low records may vary slightly from our data, if they occured in-between our weather recording intervals... More about our weather records

Kundapur Weather History for the Previous 24 Hours

Scroll right to see more
 ConditionsComfort  
Time TempWeatherWind HumidityBarometerVisibility
2:30 am
Wed, Feb 8
77 °FClear.No wind79%29.80 "Hg4 mi
2:00 am77 °FClear.3 mph74%29.80 "Hg4 mi
1:30 am77 °FClear.3 mph79%29.83 "Hg4 mi
1:00 am77 °FClear.No wind79%29.83 "Hg4 mi
12:30 am77 °FClear.No wind79%29.83 "Hg4 mi
11:30 pm
Tue, Feb 7
79 °FClear.5 mph79%29.86 "Hg4 mi
11:00 pm79 °FPassing clouds.5 mph79%29.86 "Hg4 mi
10:30 pm79 °FPassing clouds.3 mph79%29.86 "Hg4 mi
10:00 pm79 °FPassing clouds.3 mph79%29.86 "Hg4 mi
9:30 pm79 °FPassing clouds.3 mph79%29.86 "Hg4 mi
9:00 pm79 °FPassing clouds.3 mph79%29.86 "Hg4 mi
8:30 pm81 °FPassing clouds.3 mph74%29.83 "Hg4 mi
7:30 pm81 °FClear.5 mph74%29.83 "Hg4 mi
7:00 pm81 °FClear.7 mph74%29.80 "Hg4 mi
6:30 pm82 °FClear.9 mph70%29.80 "Hg4 mi
5:30 pm84 °FHaze.9 mph66%29.80 "Hg3 mi
5:00 pm84 °FHaze.9 mph66%29.77 "Hg3 mi
4:30 pm86 °FHaze.12 mph62%29.77 "Hg3 mi
4:00 pm86 °FHaze.10 mph62%29.77 "Hg3 mi
3:30 pm86 °FHaze.12 mph62%29.77 "Hg3 mi
3:00 pm88 °FHaze.10 mph59%29.80 "Hg3 mi
2:30 pm88 °FHaze.12 mph59%29.80 "Hg3 mi
2:00 pm88 °FHaze.9 mph62%29.80 "Hg3 mi
1:30 pm90 °FHaze.9 mph59%29.83 "Hg3 mi
1:00 pm90 °FHaze.8 mph59%29.86 "Hg3 mi
12:30 pm88 °FHaze.8 mph62%29.86 "Hg3 mi
11:30 am88 °FHaze.5 mph55%29.89 "Hg3 mi
11:00 am86 °FHaze.3 mph62%29.92 "Hg3 mi
10:30 am84 °FHaze.3 mph66%29.92 "Hg2 mi
10:00 am82 °FFog.5 mph79%29.92 "Hg2 mi
9:30 am81 °FFog.6 mph79%29.92 "Hg1 mi
9:00 am79 °FFog.5 mph84%29.92 "Hg1 mi
8:30 am77 °FFog.5 mph89%29.89 "Hg1 mi
8:00 am77 °FFog.6 mph89%29.89 "Hg1 mi
7:30 am75 °FFog.6 mph94%29.89 "Hg1 mi
7:00 am75 °FFog.5 mph94%29.86 "Hg1 mi
6:30 am75 °FFog.3 mph94%29.83 "Hg1 mi
5:00 am77 °FFog.3 mph89%29.83 "Hg1 mi
4:30 am77 °FFog.No wind89%29.80 "Hg1 mi
Weather by CustomWeather, © 2023

See weather overview